FW3223 Weather Reports


time (UTC)temp
C
wind
direction
speed
KPH
gust
KPH
rain 1hr
cm
rain 24hr
cm
rain mn
cm
humidity
%
barometer
mb
20210927080037 18 107 0.0 1.6 0.00 0.00 0.00 61 1025.2
20210927074518 17 109 1.6 4.8 0.00 0.00 0.00 62 1025.0
20210927073119 17 110 1.6 4.8 0.00 0.00 0.00 62 1025.0
20210927071546 17 77 0.0 0.0 0.00 0.00 0.00 64 1024.9
20210927070006 16 76 0.0 4.8 0.00 0.00 0.00 63 1024.8
20210927064501 16 77 3.2 6.4 0.00 0.00 0.00 63 1024.8
20210927061918 16 64 0.0 0.0 0.00 0.00 0.00 63 1024.8
20210927060202 16 64 0.0 0.0 0.00 0.00 0.00 63 1024.6
20210927054605 16 64 0.0 0.0 0.00 0.00 0.00 63 1024.5
20210927053333 16 64 0.0 0.0 0.00 0.00 0.00 63 1024.5
20210927051705 16 64 0.0 3.2 0.00 0.00 0.00 63 1024.5
20210927050150 16 64 1.6 6.4 0.00 0.00 0.00 63 1024.6
20210927044601 16 53 1.6 4.8 0.00 0.00 0.00 64 1024.5
20210927043043 16 33 3.2 4.8 0.00 0.00 0.00 64 1024.5
20210927041529 16 78 3.2 4.8 0.00 0.00 0.00 64 1024.5
20210927040019 16 78 1.6 4.8 0.00 0.00 0.00 64 1024.6
20210927034521 16 78 0.0 4.8 0.00 0.00 0.00 64 1024.4
20210927033025 16 78 1.6 4.8 0.00 0.00 0.00 64 1024.6
20210927031528 17 78 1.6 4.8 0.00 0.00 0.00 64 1024.7
20210927024649 17 71 1.6 4.8 0.00 0.00 0.00 64 1024.8
20210927023215 17 71 3.2 6.4 0.00 0.00 0.00 64 1024.9
20210927021627 17 72 3.2 6.4 0.00 0.00 0.00 64 1024.8
20210927020113 17 74 3.2 6.4 0.00 0.00 0.00 64 1025.0
20210927014729 17 81 1.6 4.8 0.00 0.00 0.00 64 1025.0
20210927013101 17 84 0.0 6.4 0.00 0.00 0.00 64 1025.0
20210927011632 17 86 1.6 4.8 0.00 0.00 0.00 64 1025.1
20210927010030 17 85 1.6 4.8 0.00 0.00 0.00 63 1025.1
20210927004543 17 81 0.0 4.8 0.00 0.00 0.00 62 1025.1
20210927003033 17 72 0.0 0.0 0.00 0.00 0.00 61 1025.1
20210927001533 18 61 0.0 0.0 0.00 0.00 0.00 60 1025.2
20210927000020 18 313 0.0 0.0 0.00 0.00 0.00 58 1025.3
20210926234515 18 313 0.0 1.6 0.00 0.00 0.00 58 1025.3
20210926233014 18 313 0.0 0.0 0.00 0.00 0.00 57 1025.4
20210926231506 18 313 0.0 3.2 0.00 0.00 0.00 58 1025.4
20210926224625 18 311 0.0 0.0 0.00 0.00 0.00 60 1025.3
20210926223122 18 311 1.6 6.4 0.00 0.00 0.00 61 1025.2
20210926221708 18 304 0.0 0.0 0.00 0.00 0.00 61 1025.2
20210926220100 19 302 0.0 4.8 0.00 0.00 0.00 61 1025.3
20210926214618 19 297 0.0 8.0 0.00 0.00 0.00 61 1025.2
20210926213151 19 300 3.2 8.0 0.00 0.00 0.00 60 1025.2
20210926211604 19 318 1.6 6.4 0.00 0.00 0.00 59 1025.2
20210926210021 19 293 1.6 8.0 0.00 0.00 0.00 58 1025.1
20210926204541 19 319 6.4 12.9 0.00 0.00 0.00 58 1025.0
20210926203035 19 360 4.8 9.7 0.00 0.00 0.00 58 1024.8
20210926201533 19 315 4.8 9.7 0.00 0.00 0.00 58 1024.8
20210926200003 19 306 4.8 11.3 0.00 0.00 0.00 58 1024.6
20210926194505 19 301 3.2 11.3 0.00 0.00 0.00 58 1024.5
20210926191736 19 304 4.8 14.5 0.00 0.00 0.00 58 1024.2
20210926190156 19 317 6.4 12.9 0.00 0.00 0.00 58 1024.2
20210926184603 20 288 3.2 12.9 0.00 0.00 0.00 59 1024.0
20210926183212 20 273 4.8 12.9 0.00 0.00 0.00 58 1023.9
20210926181542 20 258 4.8 12.9 0.00 0.00 0.00 58 1023.8
20210926180033 20 267 3.2 14.5 0.00 0.00 0.00 59 1023.7
20210926174556 20 360 6.4 16.1 0.00 0.00 0.00 59 1023.6
20210926173024 19 296 6.4 16.1 0.00 0.00 0.00 60 1023.6
20210926171540 19 244 9.7 17.7 0.00 0.00 0.00 60 1023.6
20210926170006 19 290 11.3 16.1 0.00 0.00 0.00 61 1023.4
20210926164505 19 245 9.7 16.1 0.00 0.00 0.00 61 1023.6
20210926163004 20 246 9.7 14.5 0.00 0.00 0.00 59 1023.6
20210926161503 20 274 6.4 14.5 0.00 0.00 0.00 61 1023.6
20210926154638 19 253 8.0 14.5 0.00 0.00 0.00 62 1023.7
20210926153125 19 244 9.7 16.1 0.00 0.00 0.00 62 1023.6
20210926151607 19 360 11.3 19.3 0.00 0.00 0.00 62 1023.6
20210926150129 19 254 11.3 16.1 0.00 0.00 0.00 63 1023.7
20210926144532 19 242 12.9 16.1 0.00 0.00 0.00 63 1023.6
20210926143117 19 227 12.9 17.7 0.00 0.00 0.00 64 1023.6
20210926141525 20 246 9.7 16.1 0.00 0.00 0.00 64 1023.5
20210926140014 20 236 8.0 12.9 0.00 0.00 0.00 63 1023.5
20210926134505 20 233 4.8 8.0 0.00 0.00 0.00 62 1023.6
20210926133000 20 253 4.8 11.3 0.00 0.00 0.00 63 1023.6
20210926131658 20 238 6.4 11.3 0.00 0.00 0.00 63 1023.8
20210926130231 21 218 4.8 8.0 0.00 0.00 0.00 60 1023.9
20210926124609 21 203 1.6 4.8 0.00 0.00 0.00 59 1023.9
20210926123116 21 180 1.6 4.8 0.00 0.00 0.00 60 1024.0
20210926121549 21 181 3.2 4.8 0.00 0.00 0.00 60 1024.1
20210926120039 21 190 1.6 6.4 0.00 0.00 0.00 60 1024.2
20210926114539 21 198 1.6 4.8 0.00 0.00 0.00 61 1024.4
20210926113047 21 197 1.6 6.4 0.00 0.00 0.00 60 1024.4
20210926111529 21 189 3.2 8.0 0.00 0.00 0.00 58 1024.6
20210926104705 21 192 3.2 6.4 0.00 0.00 0.00 56 1024.7
20210926103159 21 185 1.6 4.8 0.00 0.00 0.00 56 1024.5
20210926101557 21 183 1.6 4.8 0.00 0.00 0.00 56 1024.5
20210926100104 21 180 1.6 4.8 0.00 0.00 0.00 57 1024.4
20210926094641 20 185 3.2 6.4 0.00 0.00 0.00 57 1024.3
20210926093029 20 179 3.2 8.0 0.00 0.00 0.00 57 1024.1
20210926091528 20 178 3.2 6.4 0.00 0.00 0.00 57 1024.1
20210926090028 20 166 0.0 8.0 0.00 0.00 0.00 58 1024.1
20210926084508 20 153 0.0 6.4 0.00 0.00 0.00 58 1023.9
20210926083002 19 119 0.0 6.4 0.00 0.00 0.00 59 1023.6
20210926081616 18 109 1.6 4.8 0.00 0.00 0.00 60 1023.9